Content
SEND FEEDBACK

Daily
Averages
Monthly
Summary
United States of America

UTE PARK, NEW MEXICO


Home > North America > United States > New Mexico
Elevation: 6546 feet     Latitude: 36 31N     Longitude: 104 55W

WEATHER
 
SELECT A DAY
Number of Records: 170,431;   Date Range: 10/2/07 - 9/15/14
 
SHARE

PRINT THIS DATA

[ ← Previous Day ]
WEATHER ALMANAC - JANUARY 19, 2013
[ Next Day → ]
[ °C ]   °F
Weather ElementAverageHighLow
Temperature9 °F39.9 °F (3:55 pm)-8.7 °F (6:15 am)
Dewpoint0.6 °F17.4 °F (2:55 pm)-13.4 °F (6:15 am)
Humidity72.3 %88 % (2:35 am)27 % (3:55 pm)
Barometer30.33 in30.39 in (10:15 am)30.26 in (12:35 am)
Wind Speed1.2 mph6.9 mph (10:35 am)
Weather ElementAverage
Visibility10 mi
Wind DirectionNNE (33.1 °)

Weather ElementTotal
Precipitation---
Heating Degree Days49.4 (Base 65)
Averaged from 62 records on January 19, 2013
WEATHER CONDITIONS BREAKOUT
WIND DIRECTION BREAKOUT
WEATHER BY HOUR - JANUARY 19, 2013
[ °C ]   °F
Local TimeTemperatureDewpointHumidityBarometerVisibilityWind DirectionWind SpeedGust SpeedPrecipitationEventsConditions
12:35 AM0.9 °F-3.1 °F83 %30.26 in10.0 miCalmClear
12:55 AM-0.6 °F-4.5 °F83 %30.27 in10.0 miCalmClear
1:15 AM0.9 °F-2.6 °F86 %30.28 in10.0 miCalmClear
1:35 AM-1.7 °F-5.6 °F83 %30.28 in10.0 miCalmClear
1:55 AM-2.9 °F-6.5 °F85 %30.28 in10.0 miCalmClear
2:15 AM-0.2 °F-3.3 °F87 %30.28 in10.0 miSouth (170°)3.5 mphClear
2:35 AM-0.8 °F-3.6 °F88 %30.28 in10.0 miCalmClear
2:55 AM-4.5 °F-8.3 °F84 %30.28 in10.0 miCalmClear
3:15 AM-5.1 °F-9.2 °F82 %30.28 in10.0 miCalmClear
3:35 AM-4.9 °F-8.7 °F84 %30.28 in10.0 miCalmClear
3:55 AM-3.8 °F-7.1 °F86 %30.28 in10.0 miCalmClear
4:15 AM-7.8 °F-11.6 °F84 %30.28 in10.0 miCalmClear
4:35 AM-5.8 °F-9.8 °F83 %30.28 in10.0 miCalmClear
4:55 AM-6.5 °F-10.1 °F84 %30.29 in10.0 miCalmClear
6:15 AM-8.7 °F-13.4 °F80 %30.32 in10.0 miSE (140°)4.6 mphClear
6:55 AM-8.1 °F-11.9 °F84 %30.33 in10.0 miCalmClear
7:15 AM-4.9 °F-8.5 °F84 %30.33 in10.0 miCalmClear
7:35 AM-8.5 °F-12.5 °F83 %30.34 in10.0 miESE (120°)3.5 mphClear
8:35 AM-4.7 °F-8.3 °F84 %30.36 in10.0 miCalmClear
8:55 AM-1.8 °F-5.3 °F85 %30.37 in10.0 miSE (140°)4.6 mphClear
9:15 AM-0.2 °F-3.6 °F85 %30.37 in10.0 miCalmClear
9:35 AM2.1 °F-1.7 °F84 %30.38 in10.0 miCalmClear
10:15 AM7.3 °F3.9 °F86 %30.39 in10.0 miNW (320°)3.5 mphClear
10:35 AM7.7 °F4.1 °F85 %30.39 in10.0 miNE (40°)6.9 mphClear
10:55 AM9.1 °F5.9 °F87 %30.38 in10.0 miEast (80°)3.5 mphClear
11:15 AM10.8 °F5.5 °F79 %30.37 in10.0 miCalmClear
11:35 AM13.1 °F7.0 °F77 %30.36 in10.0 miNNE (20°)3.5 mphClear
11:55 AM13.8 °F7.3 °F75 %30.34 in10.0 miENE (60°)3.5 mphClear
12:15 PM16.0 °F9.5 °F76 %30.33 in10.0 miNNE (30°)3.5 mphClear
12:35 PM17.6 °F9.1 °F69 %30.32 in10.0 miNNE (20°)3.5 mphClear
12:55 PM21.6 °F10.6 °F63 %30.31 in10.0 miCalmClear
1:15 PM21.0 °F11.7 °F67 %30.31 in10.0 miCalmClear
1:35 PM25.0 °F13.1 °F61 %30.30 in10.0 miCalmClear
1:55 PM24.6 °F16.2 °F70 %30.31 in10.0 miCalmClear
2:15 PM23.4 °F15.6 °F72 %30.31 in10.0 miNNE (20°)5.8 mphClear
2:35 PM25.3 °F14.7 °F64 %30.31 in10.0 miCalmClear
2:55 PM27.1 °F17.4 °F67 %30.31 in10.0 miSSE (160°)3.5 mphClear
3:15 PM27.1 °F14.9 °F60 %30.31 in10.0 miCalmClear
3:35 PM38.3 °F9.7 °F31 %30.31 in10.0 miSW (220°)3.5 mphClear
3:55 PM39.9 °F8.4 °F27 %30.32 in10.0 miCalmClear
4:15 PM33.3 °F11.5 °F41 %30.32 in10.0 miCalmClear
4:35 PM36.7 °F8.4 °F31 %30.33 in10.0 miCalmClear
4:55 PM35.4 °F7.0 °F31 %30.33 in10.0 miCalmClear
5:15 PM32.5 °F6.4 °F33 %30.33 in10.0 miCalmClear
5:35 PM29.3 °F5.7 °F37 %30.34 in10.0 miSSE (150°)5.8 mphClear
5:55 PM25.5 °F7.5 °F47 %30.34 in10.0 miSW (230°)3.5 mphClear
6:35 PM23.9 °F7.5 °F50 %30.35 in10.0 miSE (130°)5.8 mphClear
7:15 PM16.7 °F5.2 °F61 %30.36 in10.0 miCalmClear
7:35 PM13.3 °F3.6 °F65 %30.36 in10.0 miCalmClear
7:55 PM9.5 °F2.1 °F72 %30.37 in10.0 miCalmClear
8:15 PM8.4 °F1.8 °F74 %30.37 in10.0 miCalmClear
8:35 PM5.9 °F-1.1 °F73 %30.37 in10.0 miCalmClear
8:55 PM3.0 °F-2.6 °F78 %30.37 in10.0 miCalmClear
9:15 PM3.0 °F-1.8 °F80 %30.37 in10.0 miCalmClear
9:35 PM0.9 °F-4.7 °F77 %30.38 in10.0 miCalmClear
9:55 PM0.3 °F-4.5 °F80 %30.39 in10.0 miCalmClear
10:15 PM1.4 °F-4.7 °F76 %30.39 in10.0 miCalmClear
10:35 PM-0.6 °F-4.4 °F84 %30.38 in10.0 miCalmClear
10:55 PM0.3 °F-4.4 °F81 %30.38 in10.0 miCalmClear
11:15 PM-2.6 °F-7.1 °F81 %30.37 in10.0 miCalmClear
11:35 PM-3.6 °F-8.1 °F81 %30.37 in10.0 miCalmClear
11:55 PM-5.4 °F-9.4 °F83 %30.36 in10.0 miCalmClear
Hourly data recorded from KAXX, located miles away from Ute Park, New Mexico







STORIES FROM OUR PARTNERS